CAL7167 RJTT-RJFF

Flight info

Callsign CAL7167
Flight time N/A
Altitude 34000
Route GUSRO1 GUSRO Y20 KIRIN
Aircraft B77W/H-SDE1E2E3FGHIJ2J3J5M1P2RWY/LB1D1

Departure

Time 2026-04-30 13:53
Airport Tokyo Haneda International Airport (RJTT)

Arrival

Time N/A
Airport Fukuoka Airport (RJFF)
Time Latitude Longitude Altitude Speed Heading
2026-04-30 13:21 35.54891 139.76744 28 ft 0 kts 150°
2026-04-30 13:36 35.54911 139.76730 25 ft 3 kts 150°
2026-04-30 13:37 35.54928 139.76718 27 ft 3 kts 145°
2026-04-30 13:37 35.54945 139.76683 25 ft 2 kts 66°
2026-04-30 13:38 35.54930 139.76650 28 ft 3 kts 60°
2026-04-30 13:38 35.54921 139.76631 28 ft 2 kts 60°
2026-04-30 13:38 35.54918 139.76624 28 ft 2 kts 60°
2026-04-30 13:39 35.54917 139.76623 28 ft 0 kts 60°
2026-04-30 13:40 35.54918 139.76625 28 ft 1 kts 60°
2026-04-30 13:41 35.54928 139.76647 28 ft 8 kts 60°
2026-04-30 13:41 35.54965 139.76725 28 ft 11 kts 60°
2026-04-30 13:41 35.55004 139.76807 27 ft 11 kts 60°
2026-04-30 13:41 35.55043 139.76890 26 ft 11 kts 60°
2026-04-30 13:42 35.55082 139.76972 27 ft 11 kts 60°
2026-04-30 13:42 35.55121 139.77054 27 ft 11 kts 59°
2026-04-30 13:42 35.55172 139.77222 27 ft 11 kts 119°
2026-04-30 13:43 35.55110 139.77281 29 ft 11 kts 147°
2026-04-30 13:43 35.55044 139.77330 28 ft 11 kts 149°
2026-04-30 13:43 35.54976 139.77378 30 ft 11 kts 151°
2026-04-30 13:43 35.54907 139.77426 28 ft 12 kts 150°
2026-04-30 13:44 35.54831 139.77480 30 ft 13 kts 149°
2026-04-30 13:44 35.54750 139.77538 29 ft 14 kts 150°
2026-04-30 13:44 35.54667 139.77596 28 ft 14 kts 149°
2026-04-30 13:44 35.54577 139.77661 30 ft 17 kts 150°
2026-04-30 13:45 35.54312 139.77849 25 ft 23 kts 150°
2026-04-30 13:45 35.54179 139.77946 27 ft 22 kts 150°
2026-04-30 13:45 35.54055 139.78031 26 ft 16 kts 150°
2026-04-30 13:46 35.54008 139.78065 28 ft 8 kts 146°
2026-04-30 13:46 35.54001 139.78157 28 ft 12 kts 61°
2026-04-30 13:46 35.54067 139.78291 29 ft 23 kts 58°
2026-04-30 13:46 35.54130 139.78451 29 ft 18 kts 91°
2026-04-30 13:47 35.54060 139.78538 30 ft 15 kts 149°
2026-04-30 13:47 35.53968 139.78603 29 ft 15 kts 150°
2026-04-30 13:47 35.53875 139.78669 26 ft 15 kts 150°
2026-04-30 13:47 35.53782 139.78735 26 ft 16 kts 149°
2026-04-30 13:48 35.53694 139.78819 28 ft 16 kts 139°
2026-04-30 13:48 35.53606 139.78911 25 ft 17 kts 139°
2026-04-30 13:48 35.53517 139.79004 24 ft 17 kts 140°
2026-04-30 13:48 35.53428 139.79096 27 ft 15 kts 140°
2026-04-30 13:49 35.53375 139.79209 26 ft 17 kts 99°
2026-04-30 13:49 35.53416 139.79346 28 ft 17 kts 60°
2026-04-30 13:49 35.53476 139.79475 32 ft 17 kts 59°
2026-04-30 13:49 35.53538 139.79604 27 ft 19 kts 60°
2026-04-30 13:50 35.53610 139.79756 31 ft 20 kts 59°
2026-04-30 13:50 35.53748 139.80049 32 ft 19 kts 60°
2026-04-30 13:50 35.53806 139.80166 32 ft 9 kts 54°
2026-04-30 13:51 35.53847 139.80230 27 ft 9 kts 56°
2026-04-30 13:51 35.53883 139.80300 30 ft 12 kts 59°
2026-04-30 13:51 35.53941 139.80421 36 ft 14 kts 59°
2026-04-30 13:51 35.53998 139.80479 38 ft 11 kts 359°
2026-04-30 13:52 35.54071 139.80443 37 ft 11 kts 329°
2026-04-30 13:52 35.54144 139.80390 35 ft 18 kts 329°
2026-04-30 13:52 35.54380 139.80222 33 ft 70 kts 330°
2026-04-30 13:52 35.55048 139.79747 34 ft 148 kts 329°
2026-04-30 13:53 35.56031 139.79002 478 ft 171 kts 328°
2026-04-30 13:53 35.57107 139.78295 1242 ft 182 kts 347°
2026-04-30 13:53 35.58368 139.78337 1911 ft 190 kts 22°
2026-04-30 13:53 35.59451 139.79337 2214 ft 212 kts 59°
2026-04-30 13:54 35.59831 139.81189 2502 ft 237 kts 101°
2026-04-30 13:54 35.59187 139.83041 3291 ft 238 kts 121°
2026-04-30 13:54 35.58373 139.84844 4192 ft 245 kts 120°
2026-04-30 13:54 35.57845 139.86085 4832 ft 248 kts 119°
2026-04-30 13:55 35.57328 139.87332 5458 ft 252 kts 119°
2026-04-30 13:55 35.56602 139.89116 6268 ft 258 kts 119°
2026-04-30 13:55 35.55793 139.91123 7081 ft 266 kts 120°
2026-04-30 13:55 35.54909 139.93103 7805 ft 269 kts 131°
2026-04-30 13:56 35.53446 139.94498 8557 ft 268 kts 161°
2026-04-30 13:56 35.51642 139.94956 9501 ft 266 kts 182°
2026-04-30 13:56 35.49780 139.94661 10276 ft 269 kts 194°
2026-04-30 13:56 35.48043 139.93727 10569 ft 291 kts 218°
2026-04-30 13:57 35.46687 139.91746 10794 ft 322 kts 242°
2026-04-30 13:57 35.46161 139.88974 11173 ft 350 kts 270°
2026-04-30 13:57 35.46551 139.85977 11860 ft 361 kts 280°
2026-04-30 13:57 35.47109 139.82954 12820 ft 364 kts 284°
2026-04-30 13:58 35.48225 139.80121 13740 ft 378 kts 305°
2026-04-30 13:58 35.51899 139.75437 15791 ft 385 kts 313°
2026-04-30 13:58 35.53794 139.73088 16828 ft 388 kts 312°
2026-04-30 13:59 35.55692 139.70699 17834 ft 392 kts 311°
2026-04-30 13:59 35.57342 139.68057 18666 ft 390 kts 296°
2026-04-30 13:59 35.58561 139.65044 19379 ft 396 kts 293°
2026-04-30 13:59 35.59757 139.61985 20290 ft 398 kts 292°
2026-04-30 14:00 35.60978 139.58929 21273 ft 399 kts 292°
2026-04-30 14:00 35.63497 139.52809 23011 ft 404 kts 292°
2026-04-30 14:00 35.64775 139.49716 23853 ft 404 kts 290°
2026-04-30 14:01 35.65691 139.46476 24417 ft 401 kts 276°
2026-04-30 14:01 35.65888 139.43092 25069 ft 396 kts 267°
2026-04-30 14:01 35.65900 139.39699 25872 ft 395 kts 267°
2026-04-30 14:01 35.65923 139.36318 26565 ft 398 kts 267°
2026-04-30 14:02 35.65958 139.32897 27134 ft 403 kts 267°
2026-04-30 14:02 35.66003 139.29442 27737 ft 406 kts 266°
2026-04-30 14:02 35.66055 139.25956 28346 ft 409 kts 266°
2026-04-30 14:02 35.66110 139.22450 28945 ft 412 kts 266°
2026-04-30 14:03 35.66165 139.18913 29448 ft 415 kts 266°
2026-04-30 14:03 35.66219 139.15354 30009 ft 417 kts 266°
2026-04-30 14:03 35.66271 139.11787 30646 ft 416 kts 266°
2026-04-30 14:03 35.66327 139.08270 31556 ft 406 kts 266°
2026-04-30 14:04 35.66389 139.04868 32724 ft 391 kts 266°
2026-04-30 14:04 35.66457 139.01557 33675 ft 384 kts 266°
2026-04-30 14:04 35.66527 138.98275 34180 ft 382 kts 266°
2026-04-30 14:04 35.66603 138.95068 34207 ft 380 kts 266°
2026-04-30 14:05 35.66750 138.88556 34236 ft 383 kts 265°
2026-04-30 14:05 35.66892 138.81986 34243 ft 386 kts 265°
2026-04-30 14:06 35.67100 138.72057 34225 ft 388 kts 266°
2026-04-30 14:07 35.67305 138.62107 34213 ft 388 kts 265°
2026-04-30 14:08 35.67510 138.52138 34194 ft 388 kts 266°
2026-04-30 14:08 35.66618 138.42138 34188 ft 397 kts 254°
2026-04-30 14:09 35.65161 138.35581 34202 ft 398 kts 251°
2026-04-30 14:10 35.62915 138.25734 34154 ft 399 kts 252°
2026-04-30 14:10 35.61666 138.19084 34145 ft 402 kts 257°
2026-04-30 14:11 35.61142 138.12215 34152 ft 405 kts 261°
2026-04-30 14:11 35.60777 138.05334 34132 ft 403 kts 261°
2026-04-30 14:12 35.60394 137.98465 34113 ft 402 kts 261°
2026-04-30 14:12 35.60004 137.91637 34110 ft 400 kts 261°
2026-04-30 14:13 35.59611 137.84823 34095 ft 399 kts 261°
2026-04-30 14:13 35.59205 137.78018 34087 ft 400 kts 260°
2026-04-30 14:14 35.58701 137.71252 34078 ft 401 kts 259°
2026-04-30 14:14 35.58173 137.64419 34082 ft 403 kts 259°
2026-04-30 14:15 35.57648 137.57506 34049 ft 404 kts 259°
2026-04-30 14:15 35.56859 137.50772 34047 ft 399 kts 253°
2026-04-30 14:16 35.55423 137.44204 34059 ft 399 kts 251°
2026-04-30 14:16 35.53982 137.37613 34041 ft 400 kts 251°
2026-04-30 14:17 35.52547 137.31017 34030 ft 401 kts 251°
2026-04-30 14:17 35.51106 137.24415 34028 ft 400 kts 251°
2026-04-30 14:18 35.49649 137.17828 34023 ft 400 kts 251°
2026-04-30 14:18 35.47690 137.09033 34024 ft 400 kts 251°
2026-04-30 14:19 35.45489 136.99168 34028 ft 399 kts 250°
2026-04-30 14:20 35.44029 136.92644 34018 ft 399 kts 250°
2026-04-30 14:20 35.41822 136.82816 34013 ft 398 kts 251°
2026-04-30 14:21 35.40347 136.76270 34014 ft 398 kts 250°
2026-04-30 14:22 35.38126 136.66440 34016 ft 397 kts 251°
2026-04-30 14:22 35.35925 136.56745 34006 ft 394 kts 251°
2026-04-30 14:23 35.32986 136.43853 33996 ft 389 kts 251°
2026-04-30 14:24 35.30798 136.34283 33997 ft 389 kts 251°
2026-04-30 14:25 35.27872 136.21526 33983 ft 389 kts 251°
2026-04-30 14:26 35.25675 136.11986 33977 ft 388 kts 251°
2026-04-30 14:27 35.23470 136.02449 33964 ft 388 kts 251°
2026-04-30 14:27 35.22008 135.96147 33963 ft 388 kts 251°
2026-04-30 14:28 35.19796 135.86636 33971 ft 388 kts 251°
2026-04-30 14:28 35.18322 135.80291 33956 ft 388 kts 251°
2026-04-30 14:29 35.16092 135.67351 33953 ft 390 kts 254°
2026-04-30 14:31 35.13350 135.51148 33934 ft 389 kts 254°
2026-04-30 14:31 35.11694 135.41452 33935 ft 388 kts 253°
2026-04-30 14:32 35.10034 135.31779 33938 ft 388 kts 253°
2026-04-30 14:33 35.08923 135.25326 33920 ft 388 kts 253°
2026-04-30 14:33 35.07269 135.15650 33914 ft 388 kts 253°
2026-04-30 14:34 35.06162 135.09198 33919 ft 388 kts 253°
2026-04-30 14:34 35.05057 135.02762 33929 ft 387 kts 253°
2026-04-30 14:35 35.03387 134.93106 33918 ft 388 kts 253°
2026-04-30 14:36 35.02255 134.86665 33913 ft 388 kts 253°
2026-04-30 14:36 35.01112 134.80228 33909 ft 389 kts 253°
2026-04-30 14:37 34.99968 134.73780 33906 ft 389 kts 253°
2026-04-30 14:37 34.98813 134.67336 33908 ft 389 kts 252°
2026-04-30 14:38 34.97558 134.60934 33909 ft 389 kts 251°
2026-04-30 14:38 34.96269 134.54512 33897 ft 391 kts 251°
2026-04-30 14:39 34.94995 134.48086 33907 ft 389 kts 251°
2026-04-30 14:39 34.93729 134.41705 33909 ft 386 kts 251°
2026-04-30 14:40 34.91835 134.32189 33907 ft 384 kts 251°
2026-04-30 14:40 34.90578 134.25906 33903 ft 384 kts 251°
2026-04-30 14:41 34.89299 134.19528 33906 ft 385 kts 251°
2026-04-30 14:41 34.88034 134.13232 33897 ft 386 kts 251°
2026-04-30 14:42 34.86757 134.06897 33906 ft 385 kts 251°
2026-04-30 14:42 34.85480 134.00572 33898 ft 384 kts 251°
2026-04-30 14:43 34.84200 133.94256 33897 ft 384 kts 251°
2026-04-30 14:43 34.82917 133.87946 33878 ft 384 kts 251°
2026-04-30 14:44 34.81624 133.81652 33887 ft 382 kts 250°
2026-04-30 14:44 34.80297 133.75388 33894 ft 383 kts 250°
2026-04-30 14:45 34.78962 133.69108 33894 ft 383 kts 250°
2026-04-30 14:45 34.77632 133.62839 33889 ft 383 kts 250°
2026-04-30 14:46 34.76298 133.56561 33886 ft 383 kts 250°
2026-04-30 14:46 34.74964 133.50290 33884 ft 383 kts 250°
2026-04-30 14:47 34.73622 133.44016 33872 ft 383 kts 250°
2026-04-30 14:47 34.72281 133.37754 33880 ft 383 kts 250°
2026-04-30 14:48 34.70947 133.31537 33886 ft 382 kts 249°
2026-04-30 14:48 34.69600 133.25286 33861 ft 383 kts 249°
2026-04-30 14:49 34.68251 133.19037 33871 ft 382 kts 249°
2026-04-30 14:49 34.66900 133.12789 33865 ft 382 kts 249°
2026-04-30 14:50 34.64865 133.03431 33862 ft 382 kts 249°
2026-04-30 14:51 34.62825 132.94079 33865 ft 382 kts 249°
2026-04-30 14:52 34.60778 132.84727 33865 ft 382 kts 249°
2026-04-30 14:52 34.58725 132.75393 33840 ft 380 kts 249°
2026-04-30 14:53 34.56680 132.66118 33855 ft 380 kts 249°
2026-04-30 14:54 34.53931 132.53721 33857 ft 381 kts 248°
2026-04-30 14:55 34.51858 132.44406 33851 ft 381 kts 248°
2026-04-30 14:56 34.49119 132.32008 33839 ft 380 kts 248°
2026-04-30 14:57 34.47073 132.22737 33857 ft 380 kts 248°
2026-04-30 14:58 34.44292 132.10378 33841 ft 381 kts 247°
2026-04-30 14:58 34.42174 132.01132 33837 ft 382 kts 247°
2026-04-30 15:00 34.38644 131.85735 33328 ft 374 kts 247°
2026-04-30 15:00 34.37245 131.79682 32148 ft 375 kts 248°
2026-04-30 15:01 34.35838 131.73588 31244 ft 374 kts 248°
2026-04-30 15:01 34.35376 131.71587 31049 ft 372 kts 248°
2026-04-30 15:01 34.33755 131.64602 30266 ft 368 kts 249°
2026-04-30 15:02 34.33063 131.61619 29934 ft 368 kts 249°
2026-04-30 15:02 34.32374 131.58632 29864 ft 369 kts 249°
2026-04-30 15:03 34.30331 131.49761 28851 ft 361 kts 249°
2026-04-30 15:03 34.29212 131.44918 27736 ft 358 kts 249°
2026-04-30 15:04 34.27880 131.39158 26544 ft 353 kts 249°
2026-04-30 15:04 34.25908 131.30673 24949 ft 344 kts 249°
2026-04-30 15:05 34.24018 131.22569 23484 ft 330 kts 249°
2026-04-30 15:06 34.22774 131.17248 22390 ft 328 kts 249°
2026-04-30 15:06 34.21530 131.11949 21297 ft 328 kts 249°
2026-04-30 15:07 34.20292 131.06666 20183 ft 323 kts 250°
2026-04-30 15:07 34.19002 131.01395 18678 ft 331 kts 246°
2026-04-30 15:08 34.17240 130.96309 17793 ft 326 kts 243°
2026-04-30 15:08 34.14573 130.88859 16047 ft 316 kts 243°
2026-04-30 15:09 34.12589 130.84128 14236 ft 316 kts 226°
2026-04-30 15:09 34.08912 130.81353 12889 ft 317 kts 196°
2026-04-30 15:10 34.04660 130.80321 12787 ft 309 kts 192°
2026-04-30 15:11 33.96332 130.78459 12326 ft 303 kts 192°
2026-04-30 15:11 33.92222 130.77507 12221 ft 296 kts 193°
2026-04-30 15:12 33.89549 130.76883 11687 ft 296 kts 193°
2026-04-30 15:13 33.86148 130.76087 11042 ft 296 kts 193°
2026-04-30 15:14 33.78742 130.74355 10283 ft 287 kts 193°
2026-04-30 15:14 33.72996 130.73013 10029 ft 272 kts 193°
2026-04-30 15:16 33.63959 130.70906 8722 ft 264 kts 193°
2026-04-30 15:17 33.56775 130.69233 7337 ft 262 kts 193°
2026-04-30 15:18 33.48187 130.67276 6983 ft 241 kts 186°
2026-04-30 15:19 33.43288 130.68446 6559 ft 235 kts 171°